{"data":{"norad_id":55808,"epoch":"2026-05-25T04:43:26.461056Z","epoch_age_seconds":57968,"freshness":"FRESH","line1":"1 55808U 23029N   26145.19683404 -.00000048  00000+0 -15304-3 0  9994","line2":"2 55808  87.9149 309.5622 0001437  92.6911 267.4386 13.19725737155873","mean_motion":13.19725737,"eccentricity":0.0001437,"inclination_deg":87.9149,"raan_deg":309.5622,"arg_perigee_deg":92.6911,"mean_anomaly_deg":267.4386,"bstar":-0.00015304,"rev_number":15587,"period_min":109.11358016503,"perigee_km":1184.6808028474,"apogee_km":1186.8546690685,"semimajor_km":7563.9047359579,"source":"CELESTRAK","updated_at":"2026-05-25T13:38:22.692100Z"}}